Regional Weather Roundup
Issued by NWS

Home | Current Version | Previous Version | Graphics & Text | Print | Product List | Glossary Off
Versions: 1 2 3 4 5 6 7 8 9 10 11 12 13 14 15 16 17 18 19 20 21 22 23 24 25 26 27 28 29 30 31 32 33 34 35 36 37 38 39 40 41 42 43 44 45 46 47 48 49 50

000
ASUS43 KDMX 180907
RWRIA

WEATHER ROUNDUP FOR IOWA
NATIONAL WEATHER SERVICE DES MOINES IA
300 AM CST THU DEC 18 2014

NOTE: "FAIR" INDICATES FEW OR NO CLOUDS BELOW 12,000 FEET WITH NO
SIGNIFICANT WEATHER AND/OR OBSTRUCTIONS TO VISIBILITY.

* - THESE STATIONS ARE NOT NWS STATIONS...THUS NOT UNDER NWS
QUALITY CONTROL.  THEY ALSO DO NOT REPORT WEATHER SUCH
AS PRECIPITATION OR FOG.

IAZ001>003-012>014-020>022-031>034-043>046-181000-
   NORTHWEST IOWA

CITY           SKY/WX    TMP DP  RH WIND       PRES   REMARKS
CARROLL *      CLOUDY    23  19  86 E6        30.26S WCI  16
CHEROKEE *     CLOUDY    21  19  93 E7        30.25F WCI  13
DENISON *      CLOUDY    23  19  86 SE6       30.23S WCI  16
LE MARS *      CLOUDY    25  21  86 VRB5      30.25S WCI  19
ORANGE CITY *  CLOUDY    21  18  86 E6        30.23S WCI  14
SHELDON *      CLOUDY    18  16  93 E8        30.23F WCI   7
SIOUX CITY     MOCLDY    26  20  77 E6        30.24F WCI  19
SPENCER        CLOUDY    16  11  80 E8        30.26F WCI   5
STORM LAKE *   CLOUDY    19  18  93 E10       30.24F WCI   8
$$

IAZ055>058-069>071-079>083-090>094-181000-
   SOUTHWEST IOWA

CITY           SKY/WX    TMP DP  RH WIND       PRES   REMARKS
ATLANTIC *     CLOUDY    25  19  80 E6        30.25R WCI  18
AUDUBON *      PTCLDY    23  16  74 E5        30.25R WCI  17
CLARINDA *     CLOUDY    28  21  74 E6        30.26S WCI  22
COUNCIL BLFS * CLOUDY    27  23  86 E7        30.22S WCI  19
CRESTON *      CLOUDY    25  19  80 E7        30.24S WCI  17
HARLAN  *      CLOUDY    25  23  93 E6        30.28S WCI  18
LAMONI         CLOUDY    26  19  74 E5        30.24F WCI  20
RED OAK *      CLOUDY    27  21  80 E7        30.25S WCI  19
SHENANDOAH *   CLOUDY    28  23  80 E6        30.25S WCI  22
$$

IAZ047>049-059>061-072>074-084-181000-
   CENTRAL IOWA

CITY           SKY/WX    TMP DP  RH WIND       PRES   REMARKS
AMES           CLOUDY    20  15  81 NE6       30.28F WCI  12
ANKENY *       CLOUDY    21  18  86 NE5       30.28F WCI  15
CHARITON *     CLOUDY    25  18  74 E7        30.26F WCI  17
DES MOINES     CLOUDY    23  17  78 E7        30.28F WCI  15
GRINNELL*      MOCLDY    19  16  86 NE5       30.28F WCI  13
KNOXVILLE *    CLOUDY    23  16  74 E6        30.27S WCI  16
MARSHALLTOWN   PTCLDY    13   9  84 N6        30.28S WCI   4
PELLA *        CLOUDY    21  18  86 CALM      30.30F
PERRY *        CLOUDY    23  19  86 NE5       30.28S WCI  17
$$

IAZ004>006-015-016-023>025-035-036-181000-
   NORTH CENTRAL IOWA

CITY           SKY/WX    TMP DP  RH WIND       PRES   REMARKS
ALGONA *       PTCLDY    12  10  92 N5        30.29S WCI   4
CLARION *      PTCLDY    14  12  92 CALM      30.29R
ESTHERVILLE    PTCLDY     9   7  92 N5        30.27F WCI   1
FORT DODGE *   CLOUDY    18  14  86 NE3       30.28F
MASON CITY     CLOUDY    17  13  84 N3        30.29F
FOREST CITY *  CLEAR     14  12  92 N3        30.27F
IOWA FALLS *     N/A     16  12  86 CALM      30.30R
$$

IAZ007>011-017>019-026>030-037>042-050>054-066-181000-
   NORTHEAST IOWA

CITY           SKY/WX    TMP DP  RH WIND       PRES   REMARKS
CEDAR RAPIDS   PTCLDY    14  11  87 NW3       30.29R
CHARLES CITY * CLEAR     14  12  92 NW3       30.30S
CLINTON *      PTCLDY    12   9  85 CALM      30.33R
DECORAH *      CLEAR     16  12  86 CALM      30.27S
DUBUQUE        CLEAR     15  12  88 N5        30.27S WCI   8
MONTICELLO *   CLEAR     16  14  93 CALM      30.29S
OELWEIN *      CLEAR     14  10  85 CALM      30.29S
WATERLOO       PTCLDY    11   9  92 NW3       30.30S
$$

IAZ064-065-067-068-078-181000-
   EAST CENTRAL IOWA

CITY           SKY/WX    TMP DP  RH WIND       PRES   REMARKS
DAVENPORT      PTCLDY    16  11  80 CALM      30.31R
IOWA CITY      PTCLDY    16  13  88 CALM      30.31F
MT. PLEASANT * CLOUDY    21  18  86 NE6       30.28F WCI  14
MUSCATINE *    CLEAR     18  14  86 CALM      30.32F
QUAD CITIES    CLEAR     17  13  84 CALM      30.31S
$$

IAZ062-063-075>077-085>089-095>099-181000-
   SOUTHEAST IOWA

CITY           SKY/WX    TMP DP  RH WIND       PRES   REMARKS
BURLINGTON     MOCLDY    22  17  81 NE6       30.29F WCI  14
FAIRFIELD *    CLOUDY    21  16  79 N6        30.29F WCI  14
FORT MADISON * CLEAR     21  19  93 CALM      30.29F
KEOKUK *       CLEAR     21  19  93 CALM      30.29F
OSKALOOSA *    CLOUDY    21  16  79 NE3       30.30S
CENTERVILLE *  MOCLDY    25  19  80 E5        30.27F WCI  19
OTTUMWA        CLOUDY    22  16  78 CALM      30.29S
WASHINGTON *   CLEAR     19  19 100 CALM      30.30S
$$

ABBREVIATIONS USED IN REMARKS
   TC - TEMPERATURES IN CELSIUS
  WCI - WIND CHILL INDEX
   HX - HEAT INDEX
  VSB - VISIBILITY
$$



USA.gov is the U.S. government's official web portal to all federal, state and local government web resources and services.